Regional Weather Roundup
Issued by NWS Wakefield, VA

Home | Current Version | Previous Version | Text Only | Print | Product List | Glossary Off
Versions: 1 2 3 4 5 6 7 8 9 10 11 12 13 14 15 16 17 18 19 20 21 22 23 24 25 26 27 28 29 30 31 32 33 34 35 36 37 38 39 40 41 42 43 44 45 46 47 48 49 50

000
ASUS41 KAKQ 291910
RWRAKQ

REGIONAL WEATHER ROUNDUP
NATIONAL WEATHER SERVICE WAKEFIELD VA
200 PM EST THU JAN 29 2015

Note: "fair" indicates few or no clouds below 12,000 feet with no
significant weather and/or obstructions to visibility. * = Denotes
station may not report precipitation (e.g., rain,snow,etc.),
thunder or fog.

VAZ042-051-052>054-056-292000-
NORTHERN VIRGINIA

CITY           SKY/WX    TMP DP  RH WIND       PRES   REMARKS
WASH NATIONAL  CLOUDY    38  13  35 S13       30.16F
DULLES         CLOUDY    34  11  38 SE12      30.12F
FORT BELVOIR   CLOUDY    35  16  45 SE9       30.16F
QUANTICO       CLOUDY    36  19  50 S15       30.17
FREDERICKSBRG* CLOUDY    40  13  33 S8        30.15F
STAFFORD*      CLOUDY    38   8  29 CALM      30.19F
WARRENTON      CLOUDY    40  19  41 SE6       30.11F
CULPEPER*      CLOUDY    39  10  30 S8        30.12F
MANASSAS*      CLOUDY    37  12  35 S9        30.13
LEESBURG*      CLOUDY    34  16  47 S9        30.12F
WINCHESTER     CLOUDY    36   5  27 SE10      30.05F
FRONT ROYAL*   CLOUDY    37  12  35 S3        30.04F
LURAY*         CLOUDY    41  18  38 SW12      30.04F
$$

VAZ048-049-060>072-079>083-292000-
CENTRAL AND SOUTH CENTRAL VIRGINIA

CITY           SKY/WX    TMP DP  RH WIND       PRES   REMARKS
RICHMOND       CLOUDY    40  12  32 S10       30.18F
CHESTERFIELD*  FAIR      41  10  28 S8        30.19F
PETERSBURG*    PTSUNNY   42   9  25 S3        30.19F
HANOVER        PTSUNNY   39  11  31 VRB7      30.18F
TAPPAHANNOCK*  PTSUNNY   40   4  22 SE9       30.19F
QUINTON*       FAIR      39  10  30 S8        30.19F
CHARLOTTSVILLE CLOUDY    40   9  28 S12       30.10F
GORDONSVILLE*  FAIR      39  11  31 S7        30.10F
ORANGE*        CLOUDY    41  12  30 SE9       30.12F
LOUISA*        CLOUDY    41  12  30 S9        30.10F
BUMPASS*       FAIR      39  10  30 S7        30.14F
FARMVILLE*     CLOUDY    46  14  27 S9        30.13F
CREWE*         FAIR      43  10  25 S8        30.15F
FORT PICKETT*  FAIR      42  14  32 S10       30.17F
CHASE CITY*    FAIR      46  18  32 S8        30.17F
CLARKSVILLE*   FAIR      43  18  36 S8        30.17F
SOUTH HILL*    PTSUNNY   42  12  30 S8        30.25F
LAWRENCEVILLE* FAIR      42  12  29 S5        30.19F
EMPORIA*       MOSUNNY   41  12  30 S7        30.23F
$$

VAZ088>098-292000-
SOUTHEAST VIRGINIA

CITY           SKY/WX    TMP DP  RH WIND       PRES   REMARKS
NORFOLK        CLOUDY    40  15  36 SW7       30.23F
VIRGINIA BEACH CLOUDY    42  16  34 S6        30.22F
NORFOLK NAVAL  PTSUNNY   43  18  36 SW6       30.24F
WEST POINT*    PTSUNNY   43  13  30 S7        30.21F
SALUDA*        FAIR      38  21  51 S6        30.21F
NEWPORT NEWS   PTSUNNY   41  19  41 SW8       30.22F
LANGLEY AFB    DRIZZLE   39  19  45 S8        30.22F
FORT EUSTIS    PTSUNNY   39  22  50 S8        30.20F
WILLIAMSBURG*    N/A     43  16  33 S6        30.22F
HR EXEC AP*    FAIR      39  18  41 S6        30.25F
FRANKLIN*      PTSUNNY   40  14  35 S6        30.23F
WAKEFIELD      PTSUNNY   41  13  31 S6        30.21F
$$

VAZ020-022-025-037-045-292000-
WEST CENTRAL AND SOUTHWEST VIRGINIA

CITY           SKY/WX    TMP DP  RH WIND       PRES   REMARKS
STAUNTON*      CLOUDY    40  14  34 S13G18    30.05F
WAYNESBORO*    CLOUDY    39  16  38 S12G17    30.04F
HOT SPRINGS VA MIX PCPN  31  26  81 S9        29.92F
LYNCHBURG      CLOUDY    41  19  41 S13       30.13F
DANVILLE       CLOUDY    45  19  35 S9        30.16F
SOUTH BOSTON*  FAIR      46  11  24 S12G21    30.16F
MARTINSVILLE   CLOUDY    45  21  38 SW7       30.14F
ROANOKE        MIX PCPN  37  24  59 W5        30.10F
BLACKSBURG     CLOUDY    36  25  65 S5        30.07F
DUBLIN*        CLOUDY    41  30  64 S12       30.04F
MARION*        CLOUDY    40  31  68 E5        30.02F
HILLSVILLE*    CLOUDY    34  26  71 S16G23    30.02F WCI  24
RICHLANDS*     FAIR      48  29  47 SW9G28    29.96F
WISE*          SUNNY     45  28  53 SW22G29   29.96F
ABINGDON*      PTSUNNY   42  29  60 CALM      30.00F
$$

MDZ021>025-VAZ099-100-292000-
SOUTHERN MARYLAND AND THE DELMARVA PENINSULA

CITY           SKY/WX    TMP DP  RH WIND       PRES   REMARKS
PATUXENT RIVER CLOUDY    36  15  42 S8        30.19F
BAY BRIDGE APT   N/A     32  12  43 SE9       30.19F
LEONARDTOWN    CLOUDY    34  16  47 S3        30.20F
DOVER          CLOUDY    34  20  57 SE6       30.20F
GEORGETOWN     CLOUDY    37  11  34 S6        30.21F
EASTON         CLOUDY    37  12  35 S9        30.23F
CAMBRIDGE      CLOUDY    36  14  41 S5        30.20F
SALISBURY      CLOUDY    40  10  29 SW10      30.21F
OCEAN CITY     CLOUDY    34  21  59 VRB3      30.23F
WALLOPS ISLAND CLOUDY    34  20  56 S10       30.23F
ACCOMACK*      CLOUDY    36  10  35 S6        30.22F
$$

NCZ012>017-030>032-292000-
NORTH CENTRAL AND EASTERN NORTH CAROLINA

CITY           SKY/WX    TMP DP  RH WIND       PRES   REMARKS
ROANOKE RAPIDS FAIR      41  18  38 S9        30.23F
RALEIGH        CLOUDY    46  15  28 SW10      30.21F
ELIZABETH CITY CLOUDY    39  13  34 SW3       30.24F
AHOSKIE*       PTSUNNY   41  13  31 S6        30.23F
EDENTON*       CLOUDY    41  20  43 SW5       30.25F
CURRITUCK*     CLOUDY    40  16  37 SW5       30.24F
KILL DEVIL HLS CLOUDY    38  24  56 CALM      30.22F
MANTEO         CLOUDY    37  23  56 CALM      30.24F
CAPE HATTERAS  PTSUNNY   40  25  55 VRB5      30.25F
TARBORO*       FAIR      44  14  29 SE6       30.25F
GOLDSBORO      PTSUNNY   45  17  32 CALM      30.23F
WASHINGTON     PTSUNNY   43  16  33 SW3       30.25F
GREENVILLE     PTSUNNY   45  16  31 S6        30.26F
NEW BERN       MOSUNNY   48  16  27 NE3       30.26F
WILMINGTON     MOSUNNY   49  20  31 SE6       30.26F
$$

VAZ048-292000-
ELSEWHERE

CITY           SKY/WX    TMP DP  RH WIND       PRES   REMARKS
HARRISBURG PA  CLOUDY    29  16  58 SE7       30.12F
BALTIMORE      CLOUDY    32  12  43 SE8       30.15F
ANNAPOLIS      CLOUDY    33  17  51 S13G21    30.18F WCI  24
ANDREWS AFB    NOT AVBL
PHILADELPHIA   CLOUDY    34   8  33 S8        30.20F
HENDERSON NC   CLOUDY    44   9  24 S10       30.19F
GREENSBORO     CLOUDY    46  20  35 SW13      30.14F
ROCKY MOUNT    PTSUNNY   44  15  31 S8        30.24F
$$

VAZ100-292000-
MARINE

STATION/POSITION TIME  TEMP    WIND        PRES    WAVE   SWELL
                       AIR SEA DIR/SP/G            HT/PER HT/PER
                 (UTC) (F)     (DEG/KT/KT) (MB)    (FT/S) (FT/S)
BRANDYWINE LGT   1900   32 36  180/  7/  8 1023.5F
CAPE MAY NJ      1900   33 37              1023.0F
LEWES DE         1900   35 34  160/  7/  8 1022.9F
15NM E FENWICK I 1900   34 41              1023.2F   3/11
OCEAN-CITY-INLET 1900   34 36  200/  5/  7 1023.3F
WACHAPREAGUE VA  1900   35 35  200/  6/  8 1023.6F
THOMAS POINT MD  1900   32 36  170/ 19/ 20 1022.6F
GOOSES REEF MD   1900   33     VRB 14/ 17  1021.4F
COVE POINT MD    1900   32     180/ 13/ 14 1022.5F
SOLOMONS ISLAND  1900      37                N/A
BISHOPS HEAD MD  1900   32 34  190/ 10/ 13 1022.7F
PINEY POINT MD   1900          160/  9/  9   N/A
POTOMAC MD       1900   35     180/  8/  8 1022.2F
CAMBRIDGE MD     1900   35 35  170/  5/  9 1022.8F
LEWISETTA VA     1900   36 35  160/  9/ 10 1022.0F
RAPPAHANNOCK LGT 1900          200/ 10/ 12 1024.0F
STINGRAY PT      1900   35     180/ 10/ 12 1024.0F
YORK RVR RNG VA  1900   37     200/  7/  8 1022.9F
YORKTOWN VA      1900          210/  7/ 10   N/A
JAMESTOWN VA     1900   37     190/  4/  8   N/A
DOMINION TERM VA 1900   37     240/  5/  6 1023.8F
KIPTOPEKE VA     1900      43  190/  4/  6   N/A
CHES BAY BRIDGE  1900   36 40  350/  2/  2 1023.3F
CAPE HENRY VA    1900   36     130/  8/  9 1022.2F
CHESAPEAKE LGHT  1800   35     200/  5/  6 1025.4F
WILLOUBY STN VA  1900   38     220/  6/  8 1024.0F
S CRANEY ISL VA  1900          210/  5/  7 1023.6F
CAPE HENRY BUOY  1800      43                N/A     4/12   2/12
1ST LANDING BUOY 1900   37     120/  6/  8 1023.4F
CAPE CHARLES BUO 1900      41                N/A     3/ 7   3/ 7
OFFSHORE WE BUOY 1900      43                N/A     4/ 8   5/ 8
64NM E OF VA BCH 1900   39 49  280/  4/  6 1023.4F   5/ 8   5/ 8
DUCK PIER NC     1900   37 42  220/  4/  5 1023.2F
44100 DUCK FRF   1800      45                N/A     4/11   2/11
44056 DUCK FRF   1900      42                N/A     4/11   2/11
OREGON INLET NC  1900   38 42  180/  2/  4 1024.1F
HATTERAS NC      1900   38 44  320/  3/  5 1024.8F



USA.gov is the U.S. government's official web portal to all federal, state and local government web resources and services.